User: anonymous   Login
Location: Bear Valley Community Church - Hurst
(32.8460°N, 97.1828°W)
Time: 13:21:23
(UTC+00:00)
Language:

XJS H - Orbit

View from above orbital plane
View from above orbital plane
View from above satellite
View from above satellite

Ground track
Ground track

The orbit data is extracted from the following two-line orbital elements,

1 45612U 20032B   22268.84857343  .00017659  00000-0  46042-3 0  9994
2 45612  35.0332 163.6690 0010242 273.9674  85.9875 15.37898822130182
Epoch (UTC): 25 September 2022 20:21:56
Eccentricity: 0.0010242
inclination: 35.0332°
perigee height: 445 km
apogee height: 459 km
right ascension of ascending node: 163.6690°
argument of perigee: 273.9674°
revolutions per day: 15.37898822
mean anomaly at epoch: 85.9875°
orbit number at epoch: 13018

The dashed part of the orbit path shows where the satellite is in the earth's shadow,  

DLR